[[{"header":{"parameterUnit":"m.s-1","parameterCategory":1,"la1":30.2991,"la2":30.254,"lo1":-89.0895,"lo2":-89.0444,"dy":0.0017,"dx":0.0017,"nx":28,"ny":28,"refTime":"2025-06-10T03:00:00:Z","depth":0,"parameterNumber":2,"parameterNumberName":"U-component_of_WINDS"},"data":[0,0,0,0,0,0,0,0,0,0,0,0,0,0,0,0,0,0,0,0,0,0,0,0,0,0,0,0,0,0,0,0,0,0,0,0,0,0,0,0,0,0,0,0,0,0,0,0,0,0,0,0,0,0,0,0,0,0,1.5289,1.5288,0,1.5223,1.5222,1.5221,1.5098,1.5096,1.5093,1.5091,1.5026,1.5026,1.5027,0,0,0,0,0,0,0,0,0,0,0,0,0,1.5308,1.5309,1.5289,1.5288,1.5288,1.5223,1.5222,1.5221,1.5098,1.5095,1.5093,1.509,1.5025,1.5026,1.5027,0,0,0,0,0,0,0,0,0,0,0,0,0,1.5277,1.5309,1.5289,1.5218,1.5211,1.5223,1.5222,1.5221,1.5099,1.5095,1.5092,1.5088,1.5025,1.5026,1.5027,1.5103,0,0,1.5029,1.5029,0,0,0,0,0,0,0,0,1.5279,1.5276,1.523,1.5223,1.5215,1.5165,1.5205,1.5181,1.51,1.5142,1.5091,1.5087,1.5075,1.5071,1.5067,1.51,1.5097,1.5029,1.5029,1.503,1.503,0,0,0,0,0,0,0,1.5281,1.5279,1.5263,1.5229,1.522,1.5189,1.5181,1.52,1.5129,1.5138,1.5129,1.5122,1.507,1.5067,1.5065,1.5096,1.5029,1.503,1.503,1.503,1.5184,1.5187,0,0,0,0,0,0,1.5294,1.5281,1.5265,1.5261,1.5239,1.5192,1.5183,1.5185,1.5129,1.5117,1.5126,1.5117,1.5067,1.5064,1.5062,1.5145,1.503,1.503,1.5031,1.518,1.5184,1.5188,0,0,0,0,0,0,1.5295,1.5293,1.5268,1.5268,1.5263,1.5196,1.5199,1.5185,1.5181,1.5119,1.5106,1.5135,1.5064,1.5061,1.5092,1.5141,1.5031,1.5031,1.5176,1.5181,1.5186,1.5313,0,0,0,0,0,0,1.5296,1.5295,1.5324,1.527,1.5263,1.5301,1.5202,1.5187,1.5183,1.5171,1.5125,1.5113,1.5061,1.5092,1.5093,1.514,1.5032,1.5171,1.5178,1.5185,1.5305,1.5322,1.5338,0,0,0,0,0,1.5297,1.5363,1.5326,1.5324,1.5298,1.5304,1.53,1.5237,1.5187,1.5215,1.5174,1.5115,1.5135,1.5096,1.5097,1.5144,1.5168,1.5176,1.5184,1.5297,1.5319,1.5337,0,0,0,0,0,0,1.5427,1.5355,1.5313,1.5364,1.534,1.5283,1.5316,1.5263,1.5254,1.5244,1.5167,1.5158,1.5199,1.5174,1.5133,1.5213,1.5142,1.515,1.5228,1.5248,1.5264,1.5269,1.5033,0,0,0,0,0,1.5461,1.5471,1.5408,1.5459,1.5449,1.5385,1.5385,1.5339,1.5312,1.5302,1.5263,1.524,1.524,1.5243,1.524,1.53,1.5287,1.5332,1.5349,1.5363,1.5371,1.5398,1.5417,1.5215,1.5215,1.5215,0,0,1.5532,1.5494,1.5506,1.5484,1.5461,1.5472,1.5378,1.5395,1.5402,1.5304,1.5331,1.5302,1.527,1.5316,1.5334,1.5297,1.5423,1.5373,1.5385,1.5386,1.5408,1.5427,1.5444,1.5221,1.522,1.5219,0,0,1.5668,1.5642,1.5679,1.5657,1.5621,1.5577,1.5586,1.5535,1.5512,1.5537,1.5462,1.547,1.5473,1.5452,1.5442,1.5565,1.5509,1.5566,1.5654,1.568,1.5696,1.571,1.5752,1.5768,1.5575,1.5575,1.5576,0,1.5762,1.5776,1.5706,1.5727,1.5718,1.5627,1.5664,1.5646,1.5612,1.5608,1.5566,1.5565,1.5538,1.5575,1.5605,1.56,1.5607,1.5572,1.5699,1.5712,1.5724,1.5763,1.578,1.5582,1.5582,1.5581,1.558,0,1.5892,1.5903,1.5938,1.5905,1.59,1.5929,1.5862,1.5866,1.5818,1.5779,1.5803,1.5766,1.5753,1.5758,1.5714,1.5788,1.5766,1.5713,1.564,1.5752,1.5787,1.5802,1.5593,1.559,1.5588,1.5586,0,0,1.6112,1.6036,1.605,1.6032,1.5983,1.599,1.6014,1.5999,1.6002,1.5981,1.5997,1.6,1.5949,1.5938,1.5889,1.5913,1.6009,1.5856,1.5854,1.5885,1.6087,1.6127,1.6145,1.5971,1.5974,1.5976,1.6089,0,1.6237,1.6272,1.6208,1.6258,1.6266,1.6177,1.6197,1.6169,1.6131,1.6131,1.6089,1.6091,1.6025,1.6017,1.6036,1.5994,1.6049,1.5985,1.5985,1.5986,1.5996,1.6164,1.6207,1.6316,1.6102,1.6105,1.6106,0,1.6389,1.6372,1.6423,1.6367,1.6368,1.6387,1.6366,1.6368,1.6333,1.6303,1.6288,1.623,1.6247,1.6176,1.6198,1.6156,1.6152,1.613,1.6133,1.6131,1.6054,1.6166,1.6349,1.6365,1.6128,1.6126,1.6124,0,1.6542,1.6532,1.656,1.6548,1.6484,1.6499,1.6473,1.6435,1.6429,1.641,1.6404,1.6389,1.6381,1.6369,1.6307,1.6262,1.6336,1.626,1.6311,1.6313,1.6332,1.6332,1.6517,1.633,1.633,1.633,1.6329,0,1.6689,1.6723,1.6627,1.6645,1.6679,1.6603,1.664,1.6605,1.657,1.6579,1.6501,1.651,1.6428,1.6428,1.6379,1.6403,1.6401,1.6376,1.6363,1.6383,1.6386,1.638,1.6371,1.6334,1.6333,1.6332,1.6331,0,1.6867,1.6804,1.6828,1.6765,1.6749,1.6777,1.6722,1.6735,1.669,1.6701,1.67,1.663,1.6625,1.6561,1.6544,1.6511,1.6554,1.6527,1.6566,1.6557,1.661,1.6606,1.6798,1.6818,1.662,1.6622,1.6624,0,1.6965,1.6988,1.6926,1.6925,1.6902,1.6902,1.6894,1.6819,1.6814,1.6773,1.6791,1.6779,1.6766,1.6762,1.671,1.6695,1.6666,1.6734,1.6663,1.6682,1.6665,1.6665,1.6665,1.675,1.6752,1.6754,1.6756,0,1.7145,1.7111,1.7103,1.7082,1.7074,1.7055,1.703,1.7034,1.6951,1.6949,1.6942,1.6931,1.691,1.6899,1.6874,1.6847,1.6787,1.6778,1.6788,1.681,1.6831,1.6818,1.6606,1.6774,1.6772,1.6771,1.677,1.6769,1.7285,1.73,1.7258,1.7249,1.7222,1.72,1.7208,1.7162,1.7155,1.7131,1.7087,1.7086,1.7046,1.7006,1.6983,1.698,1.6945,1.6961,1.6965,1.697,1.698,1.6831,1.6976,1.6975,1.6974,1.6974,1.6973,0,1.746,1.7427,1.742,1.7386,1.7379,1.7321,1.729,1.7288,1.7288,1.7255,1.7242,1.7232,1.722,1.7165,1.7146,1.7154,1.7126,1.7152,1.7151,1.7145,1.7014,1.7006,1.7175,1.7175,1.7174,1.7174,1.7174,1.7174,1.755,1.7572,1.7533,1.754,1.7506,1.7504,1.749,1.7469,1.7442,1.7434,1.7422,1.7385,1.7343,1.7319,1.7305,1.7288,1.7285,1.732,1.7295,1.7174,1.7154,1.7136,1.7128,1.732,1.732,1.7425,1.7426,1.7427]},{"header":{"parameterUnit":"m.s-1","parameterCategory":1,"la1":30.2991,"la2":30.254,"lo1":-89.0895,"lo2":-89.0444,"dy":0.0017,"dx":0.0017,"nx":28,"ny":28,"refTime":"2025-06-10T03:00:00:Z","depth":0,"parameterNumber":3,"parameterNumberName":"V-component_of_WINDS"},"data":[0,0,0,0,0,0,0,0,0,0,0,0,0,0,0,0,0,0,0,0,0,0,0,0,0,0,0,0,0,0,0,0,0,0,0,0,0,0,0,0,0,0,0,0,0,0,0,0,0,0,0,0,0,0,0,0,0,0,1.2212,1.2214,0,1.2369,1.2371,1.2373,1.2397,1.2396,1.2394,1.2393,1.2557,1.2563,1.2568,0,0,0,0,0,0,0,0,0,0,0,0,0,1.1936,1.1941,1.2212,1.2214,1.2216,1.2369,1.2371,1.2373,1.2397,1.2396,1.2394,1.2392,1.2555,1.2562,1.2569,0,0,0,0,0,0,0,0,0,0,0,0,0,1.207,1.1942,1.2211,1.2246,1.2251,1.2368,1.2371,1.2374,1.2398,1.2396,1.2394,1.2392,1.2553,1.2561,1.257,1.2664,0,0,1.2596,1.2599,0,0,0,0,0,0,0,0,1.2063,1.2081,1.2239,1.2244,1.2249,1.2361,1.2334,1.2471,1.2398,1.2342,1.2393,1.2391,1.2494,1.2507,1.2541,1.2672,1.2679,1.2597,1.2602,1.2605,1.2608,0,0,0,0,0,0,0,1.2053,1.2074,1.2274,1.2241,1.2248,1.2255,1.2272,1.236,1.2428,1.2347,1.2349,1.2367,1.2496,1.2533,1.2545,1.2682,1.2596,1.2604,1.2609,1.2612,1.2898,1.29,0,0,0,0,0,0,1.2037,1.2066,1.2269,1.2279,1.2149,1.2262,1.228,1.2328,1.2427,1.244,1.2369,1.2368,1.252,1.2535,1.2551,1.2669,1.2605,1.2613,1.2618,1.2895,1.2898,1.2901,0,0,0,0,0,0,1.2031,1.2055,1.2263,1.2173,1.22,1.2269,1.2321,1.2332,1.2369,1.2444,1.2456,1.2394,1.2519,1.2539,1.2636,1.2675,1.2617,1.2625,1.2892,1.2896,1.29,1.2904,0,0,0,0,0,0,1.2023,1.2053,1.2089,1.2174,1.2205,1.2344,1.2324,1.2336,1.2383,1.2383,1.247,1.2483,1.2518,1.2623,1.2644,1.2686,1.2631,1.2889,1.2894,1.2898,1.2901,1.2908,1.2913,0,0,0,0,0,1.2013,1.2085,1.2091,1.2115,1.2251,1.2346,1.2364,1.2403,1.2386,1.2423,1.2471,1.248,1.2667,1.2633,1.2657,1.2701,1.2887,1.2893,1.2898,1.2898,1.2906,1.2913,0,0,0,0,0,0,1.2005,1.2097,1.2104,1.2205,1.2267,1.235,1.2398,1.241,1.248,1.2477,1.2523,1.2543,1.2637,1.2679,1.2639,1.2798,1.2776,1.2786,1.2767,1.2776,1.2782,1.277,1.2639,0,0,0,0,0,1.2014,1.2083,1.216,1.2241,1.2272,1.233,1.2373,1.2397,1.2464,1.2491,1.2546,1.2611,1.2685,1.2733,1.2804,1.2907,1.2927,1.2949,1.2955,1.296,1.2969,1.3027,1.3038,1.2919,1.2919,1.2919,0,0,1.2035,1.2094,1.2135,1.2241,1.2292,1.2363,1.2352,1.2427,1.2481,1.2503,1.2597,1.264,1.2716,1.2816,1.2862,1.2853,1.3006,1.2967,1.297,1.2977,1.3033,1.3045,1.3055,1.2923,1.2922,1.2922,0,0,1.211,1.2161,1.2234,1.2285,1.2362,1.24,1.2417,1.2498,1.2527,1.2622,1.264,1.2704,1.283,1.2883,1.2927,1.302,1.3031,1.3042,1.3075,1.3131,1.314,1.3149,1.3183,1.3194,1.3051,1.3051,1.3051,0,1.2127,1.2233,1.2271,1.2345,1.2392,1.2413,1.2488,1.2536,1.2634,1.2666,1.2653,1.2811,1.2864,1.2977,1.2999,1.3034,1.3056,1.3033,1.3136,1.3145,1.3153,1.3186,1.3199,1.3052,1.3052,1.3052,1.3052,0,1.225,1.2323,1.2373,1.2465,1.2517,1.2592,1.2641,1.269,1.2709,1.2748,1.2845,1.2909,1.2994,1.3022,1.3042,1.3138,1.313,1.3126,1.3105,1.3165,1.3196,1.3209,1.3053,1.3053,1.3053,1.3052,0,0,1.2325,1.2435,1.2453,1.2495,1.2581,1.2639,1.2714,1.2796,1.2837,1.2903,1.2968,1.3073,1.307,1.3119,1.3146,1.3194,1.3265,1.3185,1.3187,1.3198,1.3374,1.3377,1.3391,1.3272,1.3274,1.3276,1.3368,0,1.241,1.2544,1.258,1.2694,1.2762,1.2783,1.2849,1.2909,1.2948,1.3012,1.3055,1.3129,1.3119,1.3149,1.3198,1.3245,1.3301,1.3239,1.3334,1.3337,1.3315,1.3408,1.3411,1.3495,1.3381,1.3383,1.3385,0,1.2527,1.2594,1.2715,1.2791,1.2821,1.288,1.2957,1.3018,1.3087,1.3112,1.3166,1.3188,1.3268,1.3241,1.3353,1.331,1.3351,1.338,1.3385,1.3396,1.3365,1.3422,1.3523,1.3536,1.3404,1.3403,1.3401,0,1.257,1.269,1.2778,1.2813,1.2904,1.2945,1.2985,1.3052,1.3099,1.3167,1.3198,1.3275,1.3317,1.3377,1.3419,1.3395,1.3527,1.3504,1.3551,1.355,1.3579,1.3577,1.3688,1.3603,1.3603,1.3603,1.3602,0,1.2662,1.2735,1.2798,1.2853,1.2935,1.2976,1.3057,1.3098,1.3157,1.322,1.3243,1.3302,1.3353,1.3419,1.3453,1.3541,1.356,1.3582,1.3591,1.3581,1.3578,1.3609,1.3605,1.3606,1.3605,1.3605,1.3604,0,1.2725,1.277,1.2867,1.2945,1.2966,1.3024,1.3091,1.3145,1.3183,1.3263,1.3284,1.3345,1.3424,1.3471,1.3571,1.3594,1.3691,1.3696,1.3667,1.3671,1.3716,1.3712,1.3852,1.3873,1.3773,1.3774,1.3775,0,1.2781,1.2838,1.2921,1.2964,1.3004,1.3074,1.3121,1.3163,1.3212,1.3294,1.3338,1.3418,1.3484,1.361,1.3664,1.3741,1.3749,1.3793,1.3761,1.3749,1.3751,1.3747,1.3753,1.3798,1.3799,1.38,1.3801,0,1.2876,1.2895,1.2962,1.3036,1.3092,1.3153,1.3214,1.3248,1.3301,1.3354,1.3434,1.3486,1.3587,1.3667,1.3748,1.3791,1.3805,1.381,1.3825,1.3817,1.3798,1.381,1.3683,1.3807,1.3806,1.3806,1.3806,1.3805,1.2938,1.2989,1.3055,1.3129,1.3179,1.3235,1.3289,1.3333,1.3401,1.3486,1.3507,1.3591,1.3659,1.3769,1.3814,1.3881,1.3874,1.3896,1.3902,1.3907,1.3908,1.3786,1.3896,1.3896,1.3896,1.3896,1.3896,0,1.3035,1.3078,1.3145,1.3229,1.3287,1.3293,1.336,1.3409,1.3483,1.3544,1.3608,1.3701,1.3778,1.3837,1.3916,1.3959,1.3968,1.3979,1.3977,1.3986,1.3909,1.3889,1.397,1.397,1.397,1.397,1.397,1.397,1.3092,1.3179,1.3206,1.3318,1.3361,1.3443,1.3481,1.3533,1.3582,1.3684,1.3747,1.3785,1.3846,1.393,1.4001,1.4017,1.4045,1.4056,1.4072,1.4,1.3992,1.3984,1.3965,1.4061,1.4061,1.4144,1.4145,1.4145]}]]